Time,TemperatureF,DewpointF,PressureIn,WindDirection,WindDirectionDegrees,WindSpeedMPH,WindSpeedGustMPH,Humidity,HourlyPrecipIn,Conditions,Clouds,dailyrainin,SoftwareType,DateUTC
2013-04-29 00:03:00,65.0,53.7,29.67,SSE,157,10.0,17.0,67,0.00,,,0.00,Weather View 32 v70,2013-04-29 04:03:00,
2013-04-29 00:08:00,65.0,53.7,29.67,SSE,157,6.0,17.0,67,0.00,,,0.00,Weather View 32 v70,2013-04-29 04:08:00,
2013-04-29 00:18:00,65.0,53.7,29.69,SSE,157,10.0,16.0,67,0.00,,,0.00,Weather View 32 v70,2013-04-29 04:18:00,
2013-04-29 00:23:00,65.0,53.7,29.69,SSE,157,6.0,16.0,67,0.00,,,0.00,Weather View 32 v70,2013-04-29 04:23:00,
2013-04-29 00:28:00,65.0,53.7,29.68,SSE,157,9.0,16.0,67,0.00,,,0.00,Weather View 32 v70,2013-04-29 04:28:00,
2013-04-29 00:33:00,65.0,53.7,29.68,SSE,157,12.0,16.0,67,0.00,,,0.00,Weather View 32 v70,2013-04-29 04:33:00,
2013-04-29 00:38:00,65.0,53.7,29.66,SSE,157,10.0,17.0,67,0.00,,,0.00,Weather View 32 v70,2013-04-29 04:38:00,
2013-04-29 00:43:00,65.0,53.7,29.66,SSE,157,12.0,17.0,67,0.00,,,0.00,Weather View 32 v70,2013-04-29 04:43:00,
2013-04-29 00:48:00,65.0,54.2,29.67,SSE,157,13.0,17.0,68,0.00,,,0.00,Weather View 32 v70,2013-04-29 04:48:00,
2013-04-29 00:53:00,65.0,54.2,29.67,SSE,157,14.0,17.0,68,0.00,,,0.00,Weather View 32 v70,2013-04-29 04:53:00,
2013-04-29 00:58:00,65.0,54.2,29.67,SSE,157,11.0,17.0,68,0.00,,,0.00,Weather View 32 v70,2013-04-29 04:58:00,
2013-04-29 01:08:00,65.0,54.2,29.66,SSE,157,12.0,19.0,68,0.00,,,0.00,Weather View 32 v70,2013-04-29 05:08:00,
2013-04-29 01:13:00,65.0,54.2,29.66,SSE,157,12.0,19.0,68,0.00,,,0.00,Weather View 32 v70,2013-04-29 05:13:00,
2013-04-29 01:18:00,65.0,54.2,29.66,SSE,157,9.0,19.0,68,0.00,,,0.00,Weather View 32 v70,2013-04-29 05:18:00,
2013-04-29 01:23:00,65.0,54.2,29.66,SSE,157,9.0,19.0,68,0.00,,,0.00,Weather View 32 v70,2013-04-29 05:23:00,
2013-04-29 01:28:00,65.0,54.2,29.67,SSE,157,12.0,19.0,68,0.00,,,0.00,Weather View 32 v70,2013-04-29 05:28:00,
2013-04-29 01:33:00,65.0,54.2,29.67,SSE,157,8.0,19.0,68,0.00,,,0.00,Weather View 32 v70,2013-04-29 05:33:00,
2013-04-29 01:38:00,65.0,54.2,29.65,SSE,157,10.0,19.0,68,0.00,,,0.00,Weather View 32 v70,2013-04-29 05:38:00,
2013-04-29 01:43:00,65.0,54.2,29.65,SSE,157,9.0,20.0,68,0.00,,,0.00,Weather View 32 v70,2013-04-29 05:43:00,
2013-04-29 01:48:00,65.0,54.2,29.67,SSE,157,15.0,20.0,68,0.00,,,0.00,Weather View 32 v70,2013-04-29 05:48:00,
2013-04-29 01:53:00,65.0,54.2,29.67,SSE,157,9.0,20.0,68,0.00,,,0.00,Weather View 32 v70,2013-04-29 05:53:00,
2013-04-29 01:58:00,65.0,54.2,29.66,SSE,157,12.0,20.0,68,0.00,,,0.00,Weather View 32 v70,2013-04-29 05:58:00,
2013-04-29 02:03:00,65.0,54.6,29.66,SSE,157,14.0,20.0,69,0.00,,,0.00,Weather View 32 v70,2013-04-29 06:03:00,
2013-04-29 02:13:00,65.0,54.2,29.66,SSE,157,10.0,20.0,68,0.00,,,0.00,Weather View 32 v70,2013-04-29 06:13:00,
2013-04-29 02:18:00,65.0,54.2,29.64,SSE,157,13.0,20.0,68,0.00,,,0.00,Weather View 32 v70,2013-04-29 06:18:00,
2013-04-29 02:28:00,65.0,53.7,29.65,SSE,157,6.0,20.0,67,0.00,,,0.00,Weather View 32 v70,2013-04-29 06:28:00,
2013-04-29 02:33:00,65.0,53.7,29.65,SSE,157,13.0,20.0,67,0.00,,,0.00,Weather View 32 v70,2013-04-29 06:33:00,
2013-04-29 02:38:00,65.0,53.7,29.65,SSE,157,7.0,20.0,67,0.00,,,0.00,Weather View 32 v70,2013-04-29 06:38:00,
2013-04-29 02:43:00,65.0,53.7,29.65,SSE,157,8.0,17.0,67,0.00,,,0.00,Weather View 32 v70,2013-04-29 06:43:00,
2013-04-29 02:48:00,65.0,53.7,29.63,SSE,157,9.0,16.0,67,0.00,,,0.00,Weather View 32 v70,2013-04-29 06:48:00,
2013-04-29 02:53:00,65.0,53.7,29.63,SSE,157,9.0,16.0,67,0.00,,,0.00,Weather View 32 v70,2013-04-29 06:53:00,
2013-04-29 02:58:00,65.0,53.7,29.63,SSE,157,10.0,16.0,67,0.00,,,0.00,Weather View 32 v70,2013-04-29 06:58:00,
2013-04-29 03:03:00,65.0,53.7,29.63,SSE,157,13.0,16.0,67,0.00,,,0.00,Weather View 32 v70,2013-04-29 07:03:00,
2013-04-29 03:13:00,65.0,53.7,29.64,SSE,157,12.0,16.0,67,0.00,,,0.00,Weather View 32 v70,2013-04-29 07:13:00,
2013-04-29 03:18:00,65.0,53.7,29.63,SSE,157,13.0,17.0,67,0.00,,,0.00,Weather View 32 v70,2013-04-29 07:18:00,
2013-04-29 03:23:00,65.0,53.7,29.63,SSE,157,15.0,18.0,67,0.00,,,0.00,Weather View 32 v70,2013-04-29 07:23:00,
2013-04-29 03:28:00,65.0,53.7,29.63,SSE,157,7.0,18.0,67,0.00,,,0.00,Weather View 32 v70,2013-04-29 07:28:00,
2013-04-29 03:33:00,65.0,53.7,29.63,SSE,157,10.0,18.0,67,0.00,,,0.00,Weather View 32 v70,2013-04-29 07:33:00,
2013-04-29 03:43:00,65.0,53.7,29.63,SSE,157,13.0,18.0,67,0.00,,,0.00,Weather View 32 v70,2013-04-29 07:43:00,
2013-04-29 03:48:00,65.0,53.7,29.62,SSE,157,12.0,18.0,67,0.00,,,0.00,Weather View 32 v70,2013-04-29 07:48:00,
2013-04-29 03:53:00,65.0,53.7,29.62,SSE,157,11.0,18.0,67,0.00,,,0.00,Weather View 32 v70,2013-04-29 07:53:00,
2013-04-29 03:58:00,65.0,53.7,29.63,SSE,157,10.0,18.0,67,0.00,,,0.00,Weather View 32 v70,2013-04-29 07:58:00,
2013-04-29 04:03:00,65.0,53.7,29.63,SSE,157,10.0,18.0,67,0.00,,,0.00,Weather View 32 v70,2013-04-29 08:03:00,
2013-04-29 04:08:00,65.0,53.7,29.61,SSE,157,11.0,18.0,67,0.00,,,0.00,Weather View 32 v70,2013-04-29 08:08:00,
2013-04-29 04:18:00,65.0,53.3,29.61,SSE,157,11.0,18.0,66,0.00,,,0.00,Weather View 32 v70,2013-04-29 08:18:00,
2013-04-29 04:23:00,64.0,52.0,29.61,SSE,157,10.0,17.0,65,0.00,,,0.00,Weather View 32 v70,2013-04-29 08:23:00,
2013-04-29 04:28:00,64.0,52.0,29.61,SSE,157,12.0,17.0,65,0.00,,,0.00,Weather View 32 v70,2013-04-29 08:28:00,
2013-04-29 04:33:00,64.0,52.0,29.61,SSE,157,10.0,17.0,65,0.00,,,0.00,Weather View 32 v70,2013-04-29 08:33:00,
2013-04-29 04:38:00,64.0,52.0,29.61,SSE,157,9.0,17.0,65,0.00,,,0.00,Weather View 32 v70,2013-04-29 08:38:00,
2013-04-29 04:43:00,64.0,52.0,29.61,SSE,157,9.0,17.0,65,0.00,,,0.00,Weather View 32 v70,2013-04-29 08:43:00,
2013-04-29 04:48:00,64.0,51.5,29.61,SSE,157,9.0,17.0,64,0.00,,,0.00,Weather View 32 v70,2013-04-29 08:48:00,
2013-04-29 04:53:00,64.0,51.5,29.61,SSE,157,13.0,17.0,64,0.00,,,0.00,Weather View 32 v70,2013-04-29 08:53:00,
2013-04-29 04:58:00,64.0,51.5,29.60,SSE,157,9.0,16.0,64,0.00,,,0.00,Weather View 32 v70,2013-04-29 08:58:00,
2013-04-29 05:08:00,64.0,51.5,29.60,SSE,157,7.0,16.0,64,0.00,,,0.00,Weather View 32 v70,2013-04-29 09:08:00,
2013-04-29 05:18:00,64.0,51.5,29.60,SSE,157,12.0,16.0,64,0.00,,,0.00,Weather View 32 v70,2013-04-29 09:18:00,
2013-04-29 05:23:00,64.0,51.5,29.60,SSE,157,7.0,16.0,64,0.00,,,0.00,Weather View 32 v70,2013-04-29 09:23:00,
2013-04-29 05:28:00,64.0,51.5,29.60,SSE,157,9.0,15.0,64,0.00,,,0.00,Weather View 32 v70,2013-04-29 09:28:00,
2013-04-29 05:33:00,64.0,51.5,29.60,SSE,157,4.0,15.0,64,0.00,,,0.00,Weather View 32 v70,2013-04-29 09:33:00,
2013-04-29 05:43:00,64.0,51.5,29.59,SSE,157,10.0,15.0,64,0.00,,,0.00,Weather View 32 v70,2013-04-29 09:43:00,
2013-04-29 05:48:00,64.0,51.5,29.59,SSE,157,8.0,15.0,64,0.00,,,0.00,Weather View 32 v70,2013-04-29 09:48:00,
2013-04-29 05:53:00,64.0,51.5,29.59,SSE,157,12.0,15.0,64,0.00,,,0.00,Weather View 32 v70,2013-04-29 09:53:00,
2013-04-29 05:58:00,65.0,52.9,29.61,SSE,157,8.0,15.0,65,0.00,,,0.00,Weather View 32 v70,2013-04-29 09:58:00,
2013-04-29 06:03:00,65.0,52.9,29.61,SSE,157,10.0,15.0,65,0.00,,,0.00,Weather View 32 v70,2013-04-29 10:03:00,
2013-04-29 06:08:00,65.0,52.5,29.60,SSE,157,11.0,15.0,64,0.00,,,0.00,Weather View 32 v70,2013-04-29 10:08:00,
2013-04-29 06:13:00,65.0,52.5,29.60,SSE,157,10.0,15.0,64,0.00,,,0.00,Weather View 32 v70,2013-04-29 10:13:00,
2013-04-29 06:18:00,65.0,52.5,29.60,SSE,157,7.0,15.0,64,0.00,,,0.00,Weather View 32 v70,2013-04-29 10:18:00,
2013-04-29 06:28:00,64.0,51.5,29.60,SSE,157,6.0,15.0,64,0.00,,,0.00,Weather View 32 v70,2013-04-29 10:28:00,
2013-04-29 06:33:00,64.0,51.5,29.60,SSE,157,8.0,15.0,64,0.00,,,0.00,Weather View 32 v70,2013-04-29 10:33:00,
2013-04-29 06:43:00,64.0,50.7,29.61,SSE,157,9.0,15.0,62,0.00,,,0.00,Weather View 32 v70,2013-04-29 10:43:00,
2013-04-29 06:48:00,64.0,50.7,29.61,SSE,157,9.0,15.0,62,0.00,,,0.00,Weather View 32 v70,2013-04-29 10:48:00,
2013-04-29 06:53:00,64.0,50.7,29.61,SSE,157,10.0,15.0,62,0.00,,,0.00,Weather View 32 v70,2013-04-29 10:53:00,
2013-04-29 07:03:00,64.0,50.7,29.61,SSE,157,9.0,15.0,62,0.00,,,0.00,Weather View 32 v70,2013-04-29 11:03:00,
2013-04-29 07:08:00,64.0,50.7,29.61,SSE,157,9.0,15.0,62,0.00,,,0.00,Weather View 32 v70,2013-04-29 11:08:00,
2013-04-29 07:13:00,64.0,50.7,29.61,SSE,157,6.0,15.0,62,0.01,,,0.01,Weather View 32 v70,2013-04-29 11:13:00,
2013-04-29 07:23:00,64.0,50.2,29.62,SSE,157,7.0,15.0,61,0.03,,,0.03,Weather View 32 v70,2013-04-29 11:23:00,
2013-04-29 07:28:00,64.0,50.2,29.61,SSE,157,15.0,15.0,61,0.03,,,0.03,Weather View 32 v70,2013-04-29 11:28:00,
2013-04-29 07:33:00,64.0,49.8,29.61,SSE,157,9.0,15.0,60,0.04,,,0.04,Weather View 32 v70,2013-04-29 11:33:00,
2013-04-29 07:38:00,64.0,49.8,29.63,SSE,157,10.0,15.0,60,0.06,,,0.06,Weather View 32 v70,2013-04-29 11:38:00,
2013-04-29 07:43:00,64.0,49.8,29.63,SSE,157,10.0,16.0,60,0.09,,,0.09,Weather View 32 v70,2013-04-29 11:43:00,
2013-04-29 07:48:00,64.0,49.8,29.62,SSE,157,13.0,17.0,60,0.10,,,0.10,Weather View 32 v70,2013-04-29 11:48:00,
2013-04-29 07:58:00,64.0,49.3,29.62,SSE,157,8.0,17.0,59,0.12,,,0.12,Weather View 32 v70,2013-04-29 11:58:00,
2013-04-29 08:03:00,64.0,48.9,29.62,SSE,157,8.0,17.0,58,0.13,,,0.13,Weather View 32 v70,2013-04-29 12:03:00,
2013-04-29 08:08:00,64.0,48.9,29.63,SSE,157,10.0,17.0,58,0.16,,,0.16,Weather View 32 v70,2013-04-29 12:08:00,
2013-04-29 08:18:00,63.0,47.5,29.62,SSE,157,7.0,17.0,57,0.16,,,0.19,Weather View 32 v70,2013-04-29 12:18:00,
2013-04-29 08:23:00,63.0,47.5,29.62,SSE,157,7.0,17.0,57,0.16,,,0.19,Weather View 32 v70,2013-04-29 12:23:00,
2013-04-29 08:28:00,64.0,48.4,29.63,SSE,157,13.0,17.0,57,0.18,,,0.21,Weather View 32 v70,2013-04-29 12:28:00,
2013-04-29 08:36:00,64.0,48.4,29.63,ENE,67,8.0,17.0,57,0.18,,,0.22,Weather View 32 v70,2013-04-29 12:36:00,
2013-04-29 08:43:00,63.0,47.0,29.63,ENE,67,9.0,17.0,56,0.16,,,0.25,Weather View 32 v70,2013-04-29 12:43:00,
2013-04-29 08:48:00,63.0,47.0,29.62,ENE,67,7.0,15.0,56,0.18,,,0.28,Weather View 32 v70,2013-04-29 12:48:00,
2013-04-29 08:53:00,63.0,46.5,29.62,ENE,67,8.0,15.0,55,0.21,,,0.31,Weather View 32 v70,2013-04-29 12:53:00,
2013-04-29 08:58:00,63.0,46.5,29.63,ENE,67,10.0,14.0,55,0.21,,,0.33,Weather View 32 v70,2013-04-29 12:58:00,
2013-04-29 09:08:00,63.0,46.1,29.63,ENE,67,7.0,15.0,54,0.21,,,0.37,Weather View 32 v70,2013-04-29 13:08:00,
2013-04-29 09:13:00,63.0,46.1,29.63,ENE,67,9.0,15.0,54,0.22,,,0.40,Weather View 32 v70,2013-04-29 13:13:00,
2013-04-29 09:23:00,63.0,45.6,29.61,ENE,67,12.0,15.0,53,0.27,,,0.46,Weather View 32 v70,2013-04-29 13:23:00,
2013-04-29 09:28:00,63.0,46.1,29.63,ENE,67,9.0,15.0,54,0.29,,,0.50,Weather View 32 v70,2013-04-29 13:28:00,
2013-04-29 09:33:00,63.0,45.1,29.63,ENE,67,6.0,15.0,52,0.33,,,0.55,Weather View 32 v70,2013-04-29 13:33:00,
2013-04-29 09:38:00,63.0,45.6,29.62,ENE,67,10.0,15.0,53,0.36,,,0.58,Weather View 32 v70,2013-04-29 13:38:00,
2013-04-29 09:43:00,63.0,45.1,29.62,ENE,67,9.0,15.0,52,0.37,,,0.62,Weather View 32 v70,2013-04-29 13:43:00,
2013-04-29 09:48:00,63.0,45.1,29.61,ENE,67,8.0,15.0,52,0.37,,,0.65,Weather View 32 v70,2013-04-29 13:48:00,
2013-04-29 09:53:00,63.0,45.1,29.61,NNW,337,7.0,15.0,52,0.39,,,0.70,Weather View 32 v70,2013-04-29 13:53:00,
2013-04-29 09:58:00,63.0,45.1,29.63,NNW,337,10.0,15.0,52,0.41,,,0.74,Weather View 32 v70,2013-04-29 13:58:00,
2013-04-29 10:03:00,63.0,44.0,29.63,NNW,337,7.0,15.0,50,0.48,,,0.82,Weather View 32 v70,2013-04-29 14:03:00,
2013-04-29 10:13:00,63.0,43.5,29.62,ENE,67,0.0,15.0,49,0.66,,,1.06,Weather View 32 v70,2013-04-29 14:13:00,
2013-04-29 10:18:00,63.0,43.5,29.62,SSE,157,0.0,15.0,49,0.64,,,1.07,Weather View 32 v70,2013-04-29 14:18:00,
2013-04-29 10:23:00,63.0,43.5,29.62,WSW,247,6.0,14.0,49,0.64,,,1.10,Weather View 32 v70,2013-04-29 14:23:00,
2013-04-29 10:33:00,63.0,42.4,29.65,WSW,247,9.0,13.0,47,0.61,,,1.16,Weather View 32 v70,2013-04-29 14:33:00,
2013-04-29 10:38:00,63.0,41.8,29.62,WSW,247,10.0,13.0,46,0.60,,,1.18,Weather View 32 v70,2013-04-29 14:38:00,
2013-04-29 10:43:00,62.0,41.5,29.62,WSW,247,12.0,13.0,47,0.59,,,1.21,Weather View 32 v70,2013-04-29 14:43:00,
2013-04-29 10:48:00,62.0,40.4,29.64,WSW,247,9.0,13.0,45,0.59,,,1.24,Weather View 32 v70,2013-04-29 14:48:00,
2013-04-29 10:53:00,62.0,40.9,29.64,WSW,247,6.0,13.0,46,0.55,,,1.25,Weather View 32 v70,2013-04-29 14:53:00,
2013-04-29 10:58:00,62.0,40.4,29.63,WSW,247,8.0,13.0,45,0.54,,,1.28,Weather View 32 v70,2013-04-29 14:58:00,
2013-04-29 11:03:00,62.0,40.4,29.63,WSW,247,7.0,13.0,45,0.49,,,1.31,Weather View 32 v70,2013-04-29 15:03:00,
2013-04-29 11:08:00,62.0,39.8,29.63,WSW,247,6.0,13.0,44,0.34,,,1.35,Weather View 32 v70,2013-04-29 15:08:00,
2013-04-29 11:23:00,62.0,39.2,29.63,WSW,247,2.0,13.0,43,0.34,,,1.41,Weather View 32 v70,2013-04-29 15:23:00,
2013-04-29 11:33:00,62.0,39.2,29.61,ENE,67,5.0,13.0,43,0.25,,,1.41,Weather View 32 v70,2013-04-29 15:33:00,
2013-04-29 11:38:00,62.0,38.6,29.63,ENE,67,0.0,13.0,42,0.23,,,1.41,Weather View 32 v70,2013-04-29 15:38:00,
2013-04-29 11:43:00,62.0,38.6,29.63,NNW,337,5.0,13.0,42,0.22,,,1.43,Weather View 32 v70,2013-04-29 15:43:00,
2013-04-29 11:48:00,63.0,38.2,29.61,NNW,337,6.0,10.0,40,0.19,,,1.43,Weather View 32 v70,2013-04-29 15:48:00,
2013-04-29 11:53:00,63.0,38.9,29.61,NNW,337,5.0,10.0,41,0.18,,,1.43,Weather View 32 v70,2013-04-29 15:53:00,
2013-04-29 11:58:00,63.0,38.2,29.61,NNW,337,6.0,10.0,40,0.15,,,1.43,Weather View 32 v70,2013-04-29 15:58:00,
2013-04-29 12:08:00,63.0,38.2,29.63,ENE,67,7.0,10.0,40,0.08,,,1.43,Weather View 32 v70,2013-04-29 16:08:00,
2013-04-29 12:13:00,62.0,38.0,29.63,ENE,67,4.0,10.0,41,0.05,,,1.43,Weather View 32 v70,2013-04-29 16:13:00,
2013-04-29 12:18:00,62.0,38.0,29.62,ENE,67,13.0,15.0,41,0.02,,,1.43,Weather View 32 v70,2013-04-29 16:18:00,
2013-04-29 12:23:00,61.0,37.7,29.62,ENE,67,9.0,15.0,42,0.02,,,1.43,Weather View 32 v70,2013-04-29 16:23:00,
2013-04-29 12:33:00,61.0,37.1,29.63,ENE,67,12.0,15.0,41,0.02,,,1.43,Weather View 32 v70,2013-04-29 16:33:00,
2013-04-29 12:38:00,62.0,37.3,29.62,ENE,67,9.0,15.0,40,0.02,,,1.43,Weather View 32 v70,2013-04-29 16:38:00,
2013-04-29 12:43:00,62.0,38.6,29.62,ENE,67,9.0,15.0,42,0.00,,,1.43,Weather View 32 v70,2013-04-29 16:43:00,
2013-04-29 12:53:00,62.0,38.6,29.63,ENE,67,6.0,15.0,42,0.00,,,1.43,Weather View 32 v70,2013-04-29 16:53:00,
2013-04-29 12:58:00,62.0,38.0,29.61,ENE,67,9.0,15.0,41,0.00,,,1.43,Weather View 32 v70,2013-04-29 16:58:00,
2013-04-29 13:08:00,62.0,38.6,29.64,SSE,157,7.0,15.0,42,0.00,,,1.43,Weather View 32 v70,2013-04-29 17:08:00,
2013-04-29 13:13:00,62.0,38.6,29.64,SSE,157,2.0,15.0,42,0.00,,,1.43,Weather View 32 v70,2013-04-29 17:13:00,
2013-04-29 13:18:00,63.0,39.5,29.61,SSE,157,2.0,15.0,42,0.00,,,1.43,Weather View 32 v70,2013-04-29 17:18:00,
2013-04-29 13:28:00,63.0,39.5,29.62,SSE,157,6.0,14.0,42,0.00,,,1.43,Weather View 32 v70,2013-04-29 17:28:00,
2013-04-29 13:33:00,63.0,39.5,29.62,SSE,157,6.0,13.0,42,0.00,,,1.43,Weather View 32 v70,2013-04-29 17:33:00,
2013-04-29 13:39:00,64.0,40.4,29.60,SSE,157,2.0,12.0,42,0.00,,,1.43,Weather View 32 v70,2013-04-29 17:39:00,
2013-04-29 13:48:00,64.0,42.2,29.62,SSE,157,5.0,12.0,45,0.00,,,1.43,Weather View 32 v70,2013-04-29 17:48:00,
2013-04-29 13:53:00,64.0,42.2,29.62,SSE,157,1.0,11.0,45,0.00,,,1.43,Weather View 32 v70,2013-04-29 17:53:00,
2013-04-29 13:58:00,64.0,42.8,29.59,SSE,157,6.0,10.0,46,0.00,,,1.43,Weather View 32 v70,2013-04-29 17:58:00,
2013-04-29 14:08:00,64.0,43.9,29.60,SSE,157,7.0,9.0,48,0.00,,,1.43,Weather View 32 v70,2013-04-29 18:08:00,
2013-04-29 14:13:00,65.0,45.3,29.60,SSE,157,7.0,9.0,49,0.00,,,1.43,Weather View 32 v70,2013-04-29 18:13:00,
2013-04-29 14:18:00,65.0,45.3,29.58,SSE,157,7.0,9.0,49,0.00,,,1.43,Weather View 32 v70,2013-04-29 18:18:00,
2013-04-29 14:28:00,65.0,45.9,29.59,WSW,247,7.0,9.0,50,0.00,,,1.43,Weather View 32 v70,2013-04-29 18:28:00,
2013-04-29 14:33:00,65.0,46.4,29.59,WSW,247,6.0,9.0,51,0.00,,,1.43,Weather View 32 v70,2013-04-29 18:33:00,
2013-04-29 14:38:00,66.0,47.3,29.58,WSW,247,6.0,9.0,51,0.00,,,1.43,Weather View 32 v70,2013-04-29 18:38:00,
2013-04-29 14:43:00,66.0,47.8,29.58,WSW,247,3.0,9.0,52,0.00,,,1.43,Weather View 32 v70,2013-04-29 18:43:00,
2013-04-29 14:48:00,67.0,48.7,29.58,SSE,157,1.0,9.0,52,0.00,,,1.43,Weather View 32 v70,2013-04-29 18:48:00,
2013-04-29 14:53:00,68.0,50.2,29.58,SSE,157,0.0,9.0,53,0.00,,,1.43,Weather View 32 v70,2013-04-29 18:53:00,
2013-04-29 14:58:00,69.0,52.1,29.55,WSW,247,2.0,9.0,55,0.00,,,1.43,Weather View 32 v70,2013-04-29 18:58:00,
2013-04-29 15:03:00,69.0,53.1,29.55,ENE,67,4.0,9.0,57,0.00,,,1.43,Weather View 32 v70,2013-04-29 19:03:00,
2013-04-29 15:13:00,69.0,54.5,29.57,ENE,67,6.0,9.0,60,0.00,,,1.43,Weather View 32 v70,2013-04-29 19:13:00,
2013-04-29 15:23:00,68.0,53.1,29.57,SSE,157,6.0,9.0,59,0.00,,,1.43,Weather View 32 v70,2013-04-29 19:23:00,
2013-04-29 15:28:00,67.0,52.2,29.57,SSE,157,6.0,9.0,59,0.00,,,1.43,Weather View 32 v70,2013-04-29 19:28:00,
2013-04-29 15:33:00,67.0,52.2,29.57,SSE,157,10.0,11.0,59,0.00,,,1.43,Weather View 32 v70,2013-04-29 19:33:00,
2013-04-29 15:38:00,66.0,51.2,29.56,SSE,157,10.0,14.0,59,0.00,,,1.43,Weather View 32 v70,2013-04-29 19:38:00,
2013-04-29 15:43:00,65.0,49.4,29.56,SSE,157,9.0,14.0,57,0.00,,,1.43,Weather View 32 v70,2013-04-29 19:43:00,
2013-04-29 15:48:00,65.0,49.4,29.57,SSE,157,12.0,14.0,57,0.00,,,1.43,Weather View 32 v70,2013-04-29 19:48:00,
2013-04-29 15:58:00,65.0,48.9,29.58,SSE,157,3.0,14.0,56,0.00,,,1.43,Weather View 32 v70,2013-04-29 19:58:00,
2013-04-29 16:03:00,65.0,49.4,29.58,SSE,157,4.0,14.0,57,0.00,,,1.43,Weather View 32 v70,2013-04-29 20:03:00,
2013-04-29 16:08:00,65.0,48.9,29.59,SSE,157,8.0,14.0,56,0.00,,,1.43,Weather View 32 v70,2013-04-29 20:08:00,
2013-04-29 16:13:00,65.0,49.4,29.59,SSE,157,6.0,14.0,57,0.00,,,1.43,Weather View 32 v70,2013-04-29 20:13:00,
2013-04-29 16:23:00,65.0,49.4,29.59,SSE,157,6.0,14.0,57,0.00,,,1.43,Weather View 32 v70,2013-04-29 20:23:00,
2013-04-29 16:28:00,65.0,48.9,29.57,SSE,157,8.0,14.0,56,0.00,,,1.43,Weather View 32 v70,2013-04-29 20:28:00,
2013-04-29 16:33:00,65.0,48.9,29.57,SSE,157,12.0,14.0,56,0.00,,,1.43,Weather View 32 v70,2013-04-29 20:33:00,
2013-04-29 16:38:00,65.0,48.4,29.56,WSW,247,8.0,14.0,55,0.00,,,1.43,Weather View 32 v70,2013-04-29 20:38:00,
2013-04-29 16:48:00,65.0,49.4,29.56,SSE,157,12.0,15.0,57,0.00,,,1.43,Weather View 32 v70,2013-04-29 20:48:00,
2013-04-29 16:53:00,65.0,49.4,29.56,SSE,157,13.0,15.0,57,0.00,,,1.43,Weather View 32 v70,2013-04-29 20:53:00,
2013-04-29 16:58:00,65.0,49.4,29.56,SSE,157,11.0,15.0,57,0.00,,,1.43,Weather View 32 v70,2013-04-29 20:58:00,
2013-04-29 17:03:00,65.0,49.4,29.56,SSE,157,7.0,15.0,57,0.00,,,1.43,Weather View 32 v70,2013-04-29 21:03:00,
2013-04-29 17:08:00,65.0,48.9,29.57,SSE,157,7.0,15.0,56,0.00,,,1.43,Weather View 32 v70,2013-04-29 21:08:00,
2013-04-29 17:13:00,65.0,48.9,29.57,SSE,157,9.0,15.0,56,0.00,,,1.43,Weather View 32 v70,2013-04-29 21:13:00,
2013-04-29 17:18:00,65.0,48.4,29.56,SSE,157,6.0,15.0,55,0.00,,,1.43,Weather View 32 v70,2013-04-29 21:18:00,
2013-04-29 17:23:00,65.0,48.4,29.56,SSE,157,10.0,15.0,55,0.00,,,1.43,Weather View 32 v70,2013-04-29 21:23:00,
2013-04-29 17:33:00,65.0,48.4,29.57,SSE,157,7.0,15.0,55,0.00,,,1.43,Weather View 32 v70,2013-04-29 21:33:00,
2013-04-29 17:38:00,65.0,47.9,29.58,SSE,157,9.0,15.0,54,0.00,,,1.43,Weather View 32 v70,2013-04-29 21:38:00,
2013-04-29 17:43:00,65.0,47.9,29.58,WSW,247,7.0,15.0,54,0.00,,,1.43,Weather View 32 v70,2013-04-29 21:43:00,
2013-04-29 17:48:00,65.0,47.4,29.57,WSW,247,9.0,15.0,53,0.00,,,1.43,Weather View 32 v70,2013-04-29 21:48:00,
2013-04-29 17:53:00,65.0,46.9,29.57,WSW,247,8.0,15.0,52,0.00,,,1.43,Weather View 32 v70,2013-04-29 21:53:00,
2013-04-29 17:58:00,65.0,46.9,29.57,WSW,247,7.0,13.0,52,0.00,,,1.43,Weather View 32 v70,2013-04-29 21:58:00,
2013-04-29 18:03:00,65.0,46.9,29.57,WSW,247,6.0,13.0,52,0.00,,,1.43,Weather View 32 v70,2013-04-29 22:03:00,
2013-04-29 18:13:00,65.0,46.9,29.58,WSW,247,10.0,15.0,52,0.00,,,1.43,Weather View 32 v70,2013-04-29 22:13:00,
2013-04-29 18:18:00,65.0,46.4,29.55,SSE,157,7.0,15.0,51,0.00,,,1.43,Weather View 32 v70,2013-04-29 22:18:00,
2013-04-29 18:23:00,66.0,47.3,29.55,WSW,247,7.0,15.0,51,0.00,,,1.43,Weather View 32 v70,2013-04-29 22:23:00,
2013-04-29 18:28:00,66.0,47.3,29.55,SSE,157,9.0,15.0,51,0.00,,,1.43,Weather View 32 v70,2013-04-29 22:28:00,
2013-04-29 18:33:00,66.0,47.3,29.55,SSE,157,12.0,15.0,51,0.00,,,1.43,Weather View 32 v70,2013-04-29 22:33:00,
2013-04-29 18:38:00,65.0,46.4,29.55,WSW,247,8.0,15.0,51,0.00,,,1.43,Weather View 32 v70,2013-04-29 22:38:00,
2013-04-29 18:43:00,65.0,46.4,29.55,SSE,157,9.0,15.0,51,0.00,,,1.43,Weather View 32 v70,2013-04-29 22:43:00,
2013-04-29 18:48:00,65.0,45.9,29.55,SSE,157,9.0,15.0,50,0.00,,,1.43,Weather View 32 v70,2013-04-29 22:48:00,
2013-04-29 18:58:00,65.0,45.9,29.57,WSW,247,12.0,15.0,50,0.00,,,1.43,Weather View 32 v70,2013-04-29 22:58:00,
2013-04-29 19:03:00,65.0,45.9,29.57,WSW,247,13.0,16.0,50,0.00,,,1.43,Weather View 32 v70,2013-04-29 23:03:00,
2013-04-29 19:08:00,65.0,45.9,29.57,SSE,157,13.0,16.0,50,0.00,,,1.43,Weather View 32 v70,2013-04-29 23:08:00,
2013-04-29 19:13:00,66.0,46.2,29.57,SSE,157,12.0,17.0,49,0.00,,,1.43,Weather View 32 v70,2013-04-29 23:13:00,
2013-04-29 19:18:00,66.0,46.2,29.58,WSW,247,15.0,17.0,49,0.00,,,1.43,Weather View 32 v70,2013-04-29 23:18:00,
2013-04-29 19:23:00,66.0,45.7,29.58,WSW,247,12.0,17.0,48,0.00,,,1.43,Weather View 32 v70,2013-04-29 23:23:00,
2013-04-29 19:28:00,66.0,45.1,29.55,WSW,247,10.0,17.0,47,0.00,,,1.43,Weather View 32 v70,2013-04-29 23:28:00,
2013-04-29 19:33:00,65.0,44.2,29.55,WSW,247,11.0,17.0,47,0.00,,,1.43,Weather View 32 v70,2013-04-29 23:33:00,
2013-04-29 19:38:00,65.0,43.1,29.57,WSW,247,11.0,17.0,45,0.00,,,1.43,Weather View 32 v70,2013-04-29 23:38:00,
2013-04-29 19:43:00,65.0,43.1,29.57,WSW,247,9.0,17.0,45,0.01,,,1.44,Weather View 32 v70,2013-04-29 23:43:00,
2013-04-29 19:53:00,65.0,42.5,29.56,WSW,247,9.0,17.0,44,0.01,,,1.44,Weather View 32 v70,2013-04-29 23:53:00,
2013-04-29 19:58:00,65.0,41.3,29.56,SSE,157,10.0,17.0,42,0.01,,,1.44,Weather View 32 v70,2013-04-29 23:58:00,
2013-04-29 20:03:00,65.0,41.9,29.56,SSE,157,6.0,17.0,43,0.01,,,1.44,Weather View 32 v70,2013-04-30 00:03:00,
2013-04-29 20:08:00,65.0,41.3,29.58,SSE,157,8.0,17.0,42,0.01,,,1.44,Weather View 32 v70,2013-04-30 00:08:00,
2013-04-29 20:13:00,65.0,41.3,29.58,SSE,157,8.0,17.0,42,0.03,,,1.46,Weather View 32 v70,2013-04-30 00:13:00,
2013-04-29 20:18:00,65.0,40.7,29.56,SSE,157,9.0,17.0,41,0.04,,,1.47,Weather View 32 v70,2013-04-30 00:18:00,
2013-04-29 20:23:00,65.0,41.3,29.56,SSE,157,7.0,16.0,42,0.06,,,1.49,Weather View 32 v70,2013-04-30 00:23:00,
2013-04-29 20:28:00,65.0,40.0,29.56,SSE,157,7.0,16.0,40,0.07,,,1.50,Weather View 32 v70,2013-04-30 00:28:00,
2013-04-29 20:33:00,65.0,40.7,29.56,SSE,157,5.0,16.0,41,0.07,,,1.50,Weather View 32 v70,2013-04-30 00:33:00,
2013-04-29 20:43:00,65.0,40.0,29.57,SSE,157,6.0,15.0,40,0.07,,,1.50,Weather View 32 v70,2013-04-30 00:43:00,
2013-04-29 20:48:00,65.0,39.4,29.57,WSW,247,6.0,12.0,39,0.08,,,1.52,Weather View 32 v70,2013-04-30 00:48:00,
2013-04-29 20:53:00,65.0,40.0,29.57,WSW,247,7.0,12.0,40,0.09,,,1.53,Weather View 32 v70,2013-04-30 00:53:00,
2013-04-29 20:58:00,65.0,39.4,29.57,SSE,157,4.0,12.0,39,0.09,,,1.53,Weather View 32 v70,2013-04-30 00:58:00,
2013-04-29 21:03:00,64.0,38.5,29.57,SSE,157,7.0,12.0,39,0.09,,,1.53,Weather View 32 v70,2013-04-30 01:03:00,
2013-04-29 21:08:00,64.0,38.5,29.58,SSE,157,7.0,12.0,39,0.11,,,1.55,Weather View 32 v70,2013-04-30 01:08:00,
2013-04-29 21:13:00,64.0,38.5,29.58,WSW,247,7.0,12.0,39,0.09,,,1.55,Weather View 32 v70,2013-04-30 01:13:00,
2013-04-29 21:18:00,64.0,37.8,29.57,WSW,247,9.0,12.0,38,0.08,,,1.55,Weather View 32 v70,2013-04-30 01:18:00,
2013-04-29 21:23:00,64.0,38.5,29.57,WSW,247,11.0,12.0,39,0.06,,,1.55,Weather View 32 v70,2013-04-30 01:23:00,
2013-04-29 21:28:00,64.0,37.1,29.59,SSE,157,9.0,12.0,37,0.05,,,1.55,Weather View 32 v70,2013-04-30 01:28:00,
2013-04-29 21:33:00,64.0,37.8,29.59,SSE,157,4.0,12.0,38,0.05,,,1.55,Weather View 32 v70,2013-04-30 01:33:00,
2013-04-29 21:38:00,64.0,37.1,29.57,SSE,157,1.0,12.0,37,0.05,,,1.55,Weather View 32 v70,2013-04-30 01:38:00,
2013-04-29 21:48:00,64.0,37.1,29.57,SSE,157,2.0,12.0,37,0.03,,,1.55,Weather View 32 v70,2013-04-30 01:48:00,
2013-04-29 21:53:00,63.0,36.9,29.57,SSE,157,1.0,12.0,38,0.02,,,1.55,Weather View 32 v70,2013-04-30 01:53:00,
2013-04-29 21:58:00,63.0,35.6,29.57,SSE,157,3.0,12.0,36,0.02,,,1.55,Weather View 32 v70,2013-04-30 01:58:00,
2013-04-29 22:03:00,63.0,36.9,29.57,SSE,157,3.0,12.0,38,0.02,,,1.55,Weather View 32 v70,2013-04-30 02:03:00,
2013-04-29 22:08:00,63.0,36.3,29.58,SSE,157,2.0,12.0,37,0.00,,,1.55,Weather View 32 v70,2013-04-30 02:08:00,
2013-04-29 22:13:00,63.0,36.9,29.58,WSW,247,3.0,12.0,38,0.00,,,1.55,Weather View 32 v70,2013-04-30 02:13:00,
2013-04-29 22:18:00,63.0,36.3,29.60,WSW,247,6.0,12.0,37,0.00,,,1.55,Weather View 32 v70,2013-04-30 02:18:00,
2013-04-29 22:23:00,63.0,36.9,29.60,SSE,157,4.0,12.0,38,0.01,,,1.56,Weather View 32 v70,2013-04-30 02:23:00,
2013-04-29 22:28:00,63.0,36.3,29.59,WSW,247,7.0,10.0,37,0.01,,,1.56,Weather View 32 v70,2013-04-30 02:28:00,
2013-04-29 22:33:00,63.0,36.9,29.59,WSW,247,12.0,13.0,38,0.01,,,1.56,Weather View 32 v70,2013-04-30 02:33:00,
2013-04-29 22:44:00,63.0,36.9,29.60,WSW,247,8.0,14.0,38,0.01,,,1.56,Weather View 32 v70,2013-04-30 02:44:00,
2013-04-29 22:53:00,63.0,37.6,29.60,WSW,247,6.0,14.0,39,0.01,,,1.56,Weather View 32 v70,2013-04-30 02:53:00,
2013-04-29 22:58:00,63.0,37.6,29.59,WSW,247,12.0,14.0,39,0.01,,,1.56,Weather View 32 v70,2013-04-30 02:58:00,
2013-04-29 23:03:00,63.0,38.2,29.59,WSW,247,10.0,14.0,40,0.01,,,1.56,Weather View 32 v70,2013-04-30 03:03:00,
2013-04-29 23:08:00,63.0,38.2,29.58,WSW,247,10.0,14.0,40,0.01,,,1.56,Weather View 32 v70,2013-04-30 03:08:00,
2013-04-29 23:13:00,63.0,38.2,29.58,WSW,247,10.0,14.0,40,0.01,,,1.56,Weather View 32 v70,2013-04-30 03:13:00,
2013-04-29 23:18:00,63.0,38.2,29.59,WSW,247,6.0,14.0,40,0.01,,,1.56,Weather View 32 v70,2013-04-30 03:18:00,
2013-04-29 23:23:00,63.0,39.5,29.59,WSW,247,8.0,14.0,42,0.00,,,1.56,Weather View 32 v70,2013-04-30 03:23:00,
2013-04-29 23:33:00,63.0,39.5,29.57,WSW,247,6.0,14.0,42,0.00,,,1.56,Weather View 32 v70,2013-04-30 03:33:00,
2013-04-29 23:38:00,63.0,39.5,29.57,WSW,247,7.0,14.0,42,0.00,,,1.56,Weather View 32 v70,2013-04-30 03:38:00,
2013-04-29 23:43:00,63.0,39.5,29.57,WSW,247,7.0,13.0,42,0.00,,,1.56,Weather View 32 v70,2013-04-30 03:43:00,
2013-04-29 23:48:00,63.0,39.5,29.57,WSW,247,6.0,13.0,42,0.00,,,1.56,Weather View 32 v70,2013-04-30 03:48:00,
2013-04-29 23:53:00,63.0,39.5,29.57,WSW,247,7.0,13.0,42,0.00,,,1.56,Weather View 32 v70,2013-04-30 03:53:00,
2013-04-29 23:58:00,63.0,39.5,29.57,WSW,247,6.0,13.0,42,0.00,,,1.56,Weather View 32 v70,2013-04-30 03:58:00,